Chippewa, MI

3:41 AM EST on December 16, 2019 (GMT -0500)
Chippewa County International

Weather History for KCIU - October, 2019

Change the Weather History Date:

Sunday, October 13, 2019

  Actual Average Record
Temperature  
Mean Temperature 36 °F -  
Max Temperature 39 °F 53 °F 75 °F (2008)
Min Temperature 33 °F 36 °F 24 °F (1993)
Degree Days  
Heating Degree Days 29    
Moisture  
Dew Point 35 °F    
Average Humidity 95    
Maximum Humidity 100    
Minimum Humidity 87    
Precipitation  
Precipitation 0.41 in - - ()
Sea Level Pressure  
Sea Level Pressure 29.68 in    
Wind  
Wind Speed 7 mph ()    
Max Wind Speed 17 mph    
Max Gust Speed 26 mph    
Visibility 7.9 miles    
Events Rain , Snow    
Averages and records for this station are not official NWS values.
T = Trace of Precipitation, MM = Missing Value Source: Averaged Metar Reports

Daily Weather History Graph

Daily Weather History Graph

Search for Another Location

Airport or City:

Astronomy

Oct. 13, 2019 Rise Set
Actual Time 7:52 AM EDT 6:55 PM EDT
Civil Twilight 7:21 AM EDT 7:25 PM EDT
Nautical Twilight 6:47 AM EDT 8:00 PM EDT
Astronomical Twilight 6:12 AM EDT 8:35 PM EDT
Moon 7:20 PM EDT (10/13) 7:20 AM EDT (10/13)
Length of Visible Light 12h 03m
Length of Day
11h 03m
Full, 100% of the Moon is Illuminated
Oct 13
Full
Oct 13
Full
Oct 21
Last Quarter
Oct 27
New
Nov 4
First Quarter

Hourly Weather History & Observations

Time (EDT) Temp. Windchill Dew Point Humidity Pressure Visibility Wind Dir Wind Speed Gust Speed Precip Events Conditions
12:56 AM 39.9 °F 31.4 °F 37.9 °F 93% 29.70 in 10.0 mi South 16.1 mph 20.7 mph 0.03 in Rain Light Rain
1:21 AM 39.2 °F 32.0 °F 37.4 °F 93% 29.68 in 10.0 mi South 11.5 mph 20.7 mph 0.01 in Rain Light Rain
1:56 AM 39.9 °F 32.1 °F 37.9 °F 93% 29.68 in 10.0 mi South 13.8 mph 21.9 mph 0.01 in   Overcast
2:17 AM 39.2 °F 30.2 °F 37.4 °F 93% 29.65 in 10.0 mi South 17.3 mph 23.0 mph 0.00 in Rain Light Rain
2:44 AM 39.2 °F 31.2 °F 37.4 °F 93% 29.64 in 10.0 mi South 13.8 mph 19.6 mph 0.01 in Rain Light Rain
2:56 AM 39.9 °F 31.8 °F 37.9 °F 93% 29.65 in 10.0 mi South 15.0 mph 26.5 mph 0.03 in Rain Light Rain
3:56 AM 39.9 °F 33.9 °F 37.9 °F 93% 29.65 in 9.0 mi South 9.2 mph 17.3 mph 0.03 in Rain Rain
4:56 AM 35.1 °F 28.6 °F 34.0 °F 96% 29.67 in 10.0 mi South 8.1 mph - 0.12 in Rain Light Rain
5:56 AM 35.1 °F 32.2 °F 34.0 °F 96% 29.67 in 10.0 mi NNW 3.5 mph - 0.01 in   Mostly Cloudy
6:14 AM 35.6 °F 32.8 °F 33.8 °F 93% 29.66 in 10.0 mi NNW 3.5 mph - 0.00 in Rain Light Rain
6:56 AM 35.1 °F 31.0 °F 34.0 °F 96% 29.68 in 10.0 mi NW 4.6 mph - 0.01 in Rain Light Rain
7:45 AM 33.8 °F 28.6 °F 33.8 °F 100% 29.67 in 8.0 mi WNW 5.8 mph - 0.01 in Rain Light Rain
7:56 AM 34.0 °F 31.0 °F 33.1 °F 96% 29.68 in 5.0 mi WNW 3.5 mph - 0.01 in Snow Light Snow
8:09 AM 33.8 °F - 33.8 °F 100% 29.67 in 10.0 mi Calm Calm - 0.00 in Rain Light Rain
8:26 AM 33.8 °F - 33.8 °F 100% 29.67 in 10.0 mi Calm Calm - 0.00 in Rain Light Rain
8:56 AM 34.0 °F 28.0 °F 33.1 °F 96% 29.70 in 6.0 mi West 6.9 mph - 0.00 in Rain Light Rain
9:20 AM 33.8 °F 27.0 °F 33.8 °F 100% 29.68 in 2.5 mi West 8.1 mph - 0.01 in Snow Light Snow
9:30 AM 33.8 °F 30.8 °F 33.8 °F 100% 29.68 in 3.0 mi West 3.5 mph - 0.01 in Snow Light Snow
9:56 AM 35.1 °F 29.3 °F 35.1 °F 100% 29.70 in 9.0 mi Variable 6.9 mph - 0.02 in Rain Light Rain
10:09 AM 35.6 °F 32.8 °F 33.8 °F 93% 29.67 in 6.0 mi WSW 3.5 mph - 0.00 in Snow Light Snow
10:19 AM 35.6 °F 32.8 °F 33.8 °F 93% 29.68 in 2.5 mi Variable 3.5 mph - 0.01 in Snow Light Snow
10:28 AM 33.8 °F 29.6 °F 33.8 °F 100% 29.68 in 1.2 mi SSW 4.6 mph - 0.02 in Snow Light Snow
10:40 AM 33.8 °F - 32.0 °F 93% 29.68 in 1.0 mi Calm Calm - 0.03 in Snow Light Snow
10:49 AM 33.8 °F 29.6 °F 32.0 °F 93% 29.68 in 1.0 mi SSE 4.6 mph - 0.04 in Snow Light Snow
10:53 AM 33.8 °F 28.6 °F 32.0 °F 93% 29.68 in 2.0 mi SSE 5.8 mph - 0.04 in Snow Light Snow
10:56 AM 33.1 °F 26.9 °F 32.0 °F 96% 29.70 in 2.5 mi SSE 6.9 mph - 0.04 in Snow Light Snow
11:04 AM 33.8 °F 29.6 °F 32.0 °F 93% 29.68 in 5.0 mi SSE 4.6 mph - 0.00 in Snow Light Snow
11:15 AM 33.8 °F 28.6 °F 33.8 °F 100% 29.68 in 6.0 mi SSE 5.8 mph - 0.00 in Snow Light Snow
11:28 AM 33.8 °F 29.6 °F 33.8 °F 100% 29.68 in 2.5 mi South 4.6 mph - 0.00 in Snow Light Snow
11:37 AM 33.8 °F 28.6 °F 33.8 °F 100% 29.68 in 6.0 mi South 5.8 mph - 0.01 in   Overcast
11:56 AM 35.1 °F 31.0 °F 34.0 °F 96% 29.70 in 7.0 mi South 4.6 mph - 0.01 in Rain Light Rain
12:04 PM 35.6 °F 32.8 °F 33.8 °F 93% 29.68 in 5.0 mi South 3.5 mph - 0.00 in   Overcast
12:56 PM 37.0 °F 33.3 °F 35.1 °F 93% 29.69 in 10.0 mi SSE 4.6 mph - 0.02 in Rain Light Rain
1:39 PM 37.4 °F 34.9 °F 35.6 °F 93% 29.66 in 10.0 mi South 3.5 mph - 0.00 in Rain Light Rain
1:56 PM 37.9 °F 34.4 °F 36.0 °F 93% 29.68 in 10.0 mi SSE 4.6 mph - 0.00 in Rain Light Rain
2:13 PM 37.4 °F - 35.6 °F 93% 29.66 in 10.0 mi Calm Calm - 0.01 in Rain Light Rain
2:51 PM 39.2 °F 37.0 °F 35.6 °F 87% 29.65 in 10.0 mi South 3.5 mph - 0.02 in Rain Light Rain
2:56 PM 37.9 °F 35.5 °F 36.0 °F 93% 29.67 in 10.0 mi South 3.5 mph - 0.02 in Rain Rain
3:06 PM 37.4 °F - 35.6 °F 93% 29.65 in 10.0 mi Calm Calm - 0.00 in Rain Light Rain
3:47 PM 37.4 °F 34.9 °F 37.4 °F 100% 29.65 in 6.0 mi West 3.5 mph - 0.01 in Rain Light Rain
3:56 PM 37.9 °F - 37.0 °F 97% 29.67 in 7.0 mi Calm Calm - 0.02 in Rain Light Rain
4:08 PM 37.4 °F 34.9 °F 37.4 °F 100% 29.66 in 10.0 mi West 3.5 mph - 0.01 in Rain Light Rain
4:56 PM 36.0 °F 31.1 °F 35.1 °F 97% 29.68 in 10.0 mi WSW 5.8 mph - 0.02 in Rain Light Rain
5:21 PM 35.6 °F 31.7 °F 33.8 °F 93% 29.66 in 10.0 mi SSW 4.6 mph - 0.01 in Rain Light Rain
5:29 PM 35.6 °F 31.7 °F 33.8 °F 93% 29.66 in 10.0 mi South 4.6 mph - 0.01 in Rain Light Rain
5:36 PM 35.6 °F 32.8 °F 33.8 °F 93% 29.66 in 10.0 mi Variable 3.5 mph - 0.01 in Rain Light Rain
5:46 PM 35.6 °F 30.7 °F 33.8 °F 93% 29.66 in 10.0 mi SSW 5.8 mph - 0.01 in Rain Light Rain
5:56 PM 35.1 °F 29.3 °F 34.0 °F 96% 29.70 in 10.0 mi SSW 6.9 mph - 0.01 in Rain Light Rain
6:13 PM 35.6 °F 30.7 °F 33.8 °F 93% 29.67 in 10.0 mi South 5.8 mph - 0.00 in Rain Light Rain
6:25 PM 35.6 °F 29.9 °F 33.8 °F 93% 29.67 in 10.0 mi SSE 6.9 mph - 0.00 in Rain Light Rain
6:56 PM 35.1 °F 29.3 °F 34.0 °F 96% 29.70 in 10.0 mi South 6.9 mph - 0.00 in Rain Light Rain
7:56 PM 34.0 °F 31.0 °F 34.0 °F 100% 29.71 in 10.0 mi South 3.5 mph - 0.00 in   Overcast
8:56 PM 34.0 °F 31.0 °F 33.1 °F 96% 29.73 in 10.0 mi South 3.5 mph - N/A   Overcast
9:56 PM 34.0 °F 28.8 °F 33.1 °F 96% 29.73 in 10.0 mi SW 5.8 mph - N/A   Overcast
10:56 PM 33.1 °F 28.7 °F 32.0 °F 96% 29.73 in 10.0 mi South 4.6 mph - N/A   Partly Cloudy
11:56 PM 34.0 °F 28.8 °F 33.1 °F 96% 29.73 in 10.0 mi WSW 5.8 mph - N/A   Partly Cloudy